Flag for Germany Past Weather in Singen (Hohentwiel), Baden-Württemberg, Germany — Yesterday and Last 2 Weeks

Now
66 °F

Clear.


Feels Like: 66 °F
Forecast: 51 / 74 °F
Wind: 2 mph from South

Location: Zurich-Kloten

Current Time: Jul 31, 2016 at 2:35:07 AM

Latest Report: Jul 31, 2016 at 1:50 AM


Visibility: 10 mi

Pressure: 29.95 "Hg

Humidity: 78%

Dew Point: 59 °F

Location of Singen (Hohentwiel)Location

Past Weather in Singen (Hohentwiel) — Graph

°F

Singen (Hohentwiel) Temperature Yesterday

Maximum temperature yesterday: 84 °F (at 2:20 PM)
Minimum temperature yesterday: 57 °F (at 5:50 AM)
Average temperature yesterday: 72 °F

High & Low Weather Summary for the Past Weeks

 TemperatureHumidityPressure
High91 °F (Jul 20, 5:20 PM)100% (Jul 16, 1:20 AM)30.36 "Hg (Jul 16, 1:20 AM)
Low45 °F (Jul 16, 3:50 AM)31% (Jul 20, 3:20 PM)29.95 "Hg (Jul 30, 2:50 PM)
Average70 °F72%30.11 "Hg
* Reported Jul 16 1:20 AM — Jul 31 1:20 AM, Singen (Hohentwiel), Weather by CustomWeather, © 2016

Note: Actual official high and low records may vary slightly from our data, if they occured in-between our weather recording intervals... More about our weather records

Advertising

Singen (Hohentwiel) Weather History for the Previous 24 Hours

Scroll right to see more
 ConditionsComfort  
Time TempWeatherWind HumidityBarometerVisibility
1:20 AM
Sun, Jul 31
66 °FClear.3 mph78%29.95 "Hg10 mi
12:50 AM68 °FClear.5 mph73%29.95 "Hg10 mi
12:20 AM68 °FClear.6 mph73%29.95 "Hg10 mi
11:50 PM
Sat, Jul 30
70 °FClear.5 mph73%29.95 "Hg10 mi
11:20 PM72 °FClear.7 mph69%29.95 "Hg10 mi
10:50 PM72 °FClear.5 mph69%29.95 "Hg10 mi
10:20 PM73 °FClear.6 mph65%29.98 "Hg10 mi
9:50 PM75 °FSunny.6 mph61%29.98 "Hg10 mi
9:20 PM75 °FSunny.6 mph57%29.95 "Hg10 mi
8:50 PM77 °FPassing clouds.6 mph54%29.98 "HgN/A
8:20 PM79 °FSunny.8 mph51%29.95 "Hg10 mi
7:50 PM77 °FPartly sunny.6 mph54%29.95 "HgN/A
7:20 PM79 °FPartly sunny.6 mph51%29.95 "HgN/A
6:50 PM81 °FBroken clouds.6 mph48%29.95 "HgN/A
6:20 PM81 °FBroken clouds.12 mph48%29.95 "HgN/A
5:50 PM81 °FScattered clouds.12 mph48%29.98 "HgN/A
5:20 PM81 °FBroken clouds.8 mph54%29.98 "HgN/A
4:50 PM81 °FSprinkles. Scattered clouds.13 mph58%29.98 "HgN/A
4:20 PM81 °FScattered clouds.8 mph54%29.95 "HgN/A
3:50 PM82 °FScattered clouds.13 mph48%29.95 "HgN/A
3:20 PM84 °FScattered clouds.10 mph45%29.95 "HgN/A
2:50 PM84 °FPassing clouds.10 mph45%29.95 "HgN/A
2:20 PM84 °FPassing clouds.9 mph48%29.98 "HgN/A
1:50 PM82 °FPassing clouds.9 mph51%29.98 "HgN/A
1:20 PM82 °FPassing clouds.7 mph48%29.98 "HgN/A
12:50 PM81 °FPassing clouds.3 mph54%29.98 "HgN/A
12:20 PM81 °FPassing clouds.3 mph58%29.98 "HgN/A
11:50 AM79 °FPassing clouds.7 mph58%30.01 "HgN/A
11:20 AM77 °FPassing clouds.3 mph65%30.01 "HgN/A
10:50 AM75 °FPassing clouds.2 mph69%30.01 "HgN/A
10:20 AM73 °FPassing clouds.2 mph69%30.01 "HgN/A
9:50 AM73 °FPassing clouds.1 mph69%30.01 "HgN/A
9:20 AM70 °FPassing clouds.2 mph78%30.01 "HgN/A
8:50 AM66 °FScattered clouds.3 mph83%30.01 "HgN/A
8:20 AM64 °FScattered clouds.3 mph88%30.01 "HgN/A
7:50 AM64 °FPassing clouds.3 mph88%30.01 "HgN/A
7:20 AM63 °FPassing clouds.1 mph94%30.01 "HgN/A
6:50 AM59 °FPassing clouds.5 mph100%30.01 "HgN/A
6:20 AM59 °FPassing clouds.3 mph94%30.01 "HgN/A
5:50 AM57 °FPassing clouds.6 mph100%30.01 "HgN/A
5:20 AM61 °FPassing clouds.1 mph88%30.01 "HgN/A
4:50 AM61 °FPassing clouds.2 mph94%30.01 "HgN/A
4:20 AM61 °FPassing clouds.No wind94%30.01 "HgN/A
3:50 AM61 °FPassing clouds.1 mph94%30.04 "HgN/A
3:20 AM63 °FPassing clouds.No wind88%30.04 "HgN/A
2:50 AM64 °FPassing clouds.2 mph83%30.04 "HgN/A
2:20 AM63 °FPassing clouds.3 mph88%30.04 "HgN/A
Weather by CustomWeather, © 2016

See weather overviewHow to use our weather pages